| time (UTC) | temp C | wind direction | speed KPH | gust KPH | rain 1hr cm | rain 24hr cm | rain mn cm | humidity % | barometer mb |
| 20260901111552 | 13 | 204 | 0.0 | 3.2 | 0.00 | 0.00 | 0.00 | 19 | 1011.1 |
| 20260901110050 | 13 | 205 | 0.0 | 1.6 | 0.00 | 0.00 | 0.00 | 17 | 1011.1 |
| 20260901104546 | 13 | 205 | 0.0 | 3.2 | 0.00 | 0.00 | 0.00 | 16 | 1011.0 |
| 20260901103036 | 12 | 207 | 1.6 | 6.4 | 0.00 | 0.00 | 0.00 | 13 | 1011.0 |
| 20260901101532 | 12 | 216 | 0.0 | 4.8 | 0.00 | 0.00 | 0.00 | 9 | 1010.9 |
| 20260901100030 | 12 | 234 | 0.0 | 4.8 | 0.00 | 0.00 | 0.00 | 12 | 1011.0 |
| 20260901094529 | 12 | 176 | 0.0 | 3.2 | 0.00 | 0.00 | 0.00 | 13 | 1010.9 |
| 20260901093027 | 12 | 176 | 0.0 | 4.8 | 0.00 | 0.00 | 0.00 | 14 | 1011.0 |
| 20260901091526 | 12 | 175 | 0.0 | 1.6 | 0.00 | 0.00 | 0.00 | 15 | 1010.9 |
| 20260901090030 | 12 | 206 | 0.0 | 4.8 | 0.00 | 0.00 | 0.00 | 15 | 1010.8 |
| 20260901084524 | 12 | 203 | 1.6 | 6.4 | 0.00 | 0.00 | 0.00 | 15 | 1010.7 |
| 20260901083022 | 12 | 232 | 0.0 | 0.0 | 0.00 | 0.00 | 0.00 | 22 | 1010.7 |
| 20260901081518 | 13 | 237 | 0.0 | 3.2 | 0.00 | 0.00 | 0.00 | 25 | 1010.6 |
| 20260901080015 | 13 | 238 | 0.0 | 1.6 | 0.00 | 0.00 | 0.00 | 30 | 1010.6 |
| 20260901074513 | 13 | 238 | 0.0 | 1.6 | 0.00 | 0.00 | 0.00 | 32 | 1010.7 |
| 20260901073011 | 13 | 238 | 0.0 | 4.8 | 0.00 | 0.00 | 0.00 | 34 | 1010.5 |
| 20260901071510 | 13 | 238 | 0.0 | 3.2 | 0.00 | 0.00 | 0.00 | 37 | 1010.4 |
| 20260901070009 | 13 | 233 | 0.0 | 3.2 | 0.00 | 0.00 | 0.00 | 38 | 1010.4 |
| 20260901064502 | 14 | 225 | 1.6 | 4.8 | 0.00 | 0.00 | 0.00 | 41 | 1010.3 |
| 20260901063058 | 14 | 278 | 0.0 | 6.4 | 0.00 | 0.00 | 0.00 | 43 | 1010.1 |
| 20260901061600 | 14 | 282 | 1.6 | 11.3 | 0.00 | 0.00 | 0.00 | 45 | 1009.9 |
| 20260901060049 | 15 | 215 | 3.2 | 12.9 | 0.00 | 0.00 | 0.00 | 46 | 1010.0 |
| 20260901054545 | 15 | 227 | 1.6 | 17.7 | 0.00 | 0.00 | 0.00 | 48 | 1009.9 |
| 20260901053042 | 15 | 250 | 3.2 | 9.7 | 0.00 | 0.00 | 0.00 | 51 | 1009.6 |
| 20260901051540 | 15 | 248 | 1.6 | 4.8 | 0.00 | 0.00 | 0.00 | 52 | 1009.6 |
| 20260901050032 | 15 | 203 | 1.6 | 6.4 | 0.00 | 0.00 | 0.00 | 54 | 1009.4 |
| 20260901044529 | 16 | 261 | 0.0 | 1.6 | 0.00 | 0.00 | 0.00 | 58 | 1009.2 |
| 20260901043027 | 16 | 261 | 0.0 | 3.2 | 0.00 | 0.00 | 0.00 | 60 | 1009.1 |
| 20260901041519 | 17 | 218 | 1.6 | 6.4 | 0.00 | 0.00 | 0.00 | 62 | 1008.7 |
| 20260901040015 | 17 | 200 | 1.6 | 11.3 | 0.00 | 0.00 | 0.00 | 63 | 1008.5 |
| 20260901034510 | 18 | 198 | 4.8 | 11.3 | 0.00 | 0.00 | 0.00 | 63 | 1008.2 |
| 20260901033008 | 19 | 198 | 1.6 | 12.9 | 0.00 | 0.00 | 0.00 | 62 | 1008.0 |
| 20260901031501 | 20 | 269 | 0.0 | 12.9 | 0.00 | 0.00 | 0.00 | 60 | 1007.8 |
| 20260901030057 | 21 | 320 | 1.6 | 4.8 | 0.00 | 0.00 | 0.00 | 56 | 1007.6 |
| 20260901024552 | 21 | 298 | 0.0 | 8.0 | 0.00 | 0.00 | 0.00 | 54 | 1007.5 |
| 20260901023054 | 22 | 275 | 1.6 | 6.4 | 0.00 | 0.00 | 0.00 | 53 | 1007.3 |
| 20260901021544 | 23 | 284 | 1.6 | 11.3 | 0.00 | 0.00 | 0.00 | 50 | 1007.2 |
| 20260901020039 | 25 | 288 | 3.2 | 8.0 | 0.00 | 0.00 | 0.00 | 48 | 1007.0 |
| 20260901014535 | 26 | 279 | 6.4 | 16.1 | 0.00 | 0.00 | 0.00 | 45 | 1007.0 |
| 20260901013039 | 27 | 300 | 1.6 | 8.0 | 0.00 | 0.00 | 0.00 | 42 | 1006.7 |
| 20260901011526 | 27 | 273 | 0.0 | 4.8 | 0.00 | 0.00 | 0.00 | 40 | 1006.7 |
| 20260901010029 | 28 | 229 | 1.6 | 6.4 | 0.00 | 0.00 | 0.00 | 40 | 1006.8 |
| 20260901004520 | 28 | 261 | 0.0 | 11.3 | 0.00 | 0.00 | 0.00 | 38 | 1006.9 |
| 20260901003014 | 27 | 281 | 0.0 | 3.2 | 0.00 | 0.00 | 0.00 | 40 | 1006.8 |
| 20260901001512 | 27 | 281 | 0.0 | 3.2 | 0.00 | 0.00 | 0.00 | 37 | 1006.9 |
| 20260901000008 | 27 | 275 | 0.0 | 8.0 | 0.00 | 0.00 | 0.00 | 36 | 1006.9 |
| 20260831234601 | 27 | 303 | 0.0 | 4.8 | 0.00 | 0.00 | 0.00 | 37 | 1007.1 |
| 20260831233056 | 27 | 65 | 0.0 | 3.2 | 0.00 | 0.00 | 0.00 | 37 | 1007.1 |
| 20260831231554 | 27 | 289 | 0.0 | 6.4 | 0.00 | 0.00 | 0.00 | 38 | 1007.1 |
| 20260831230051 | 27 | 274 | 1.6 | 4.8 | 0.00 | 0.00 | 0.00 | 37 | 1007.3 |
| 20260831224542 | 27 | 225 | 1.6 | 4.8 | 0.00 | 0.00 | 0.00 | 35 | 1007.6 |
| 20260831223038 | 28 | 313 | 0.0 | 8.0 | 0.00 | 0.00 | 0.00 | 36 | 1007.5 |
| 20260831221541 | 27 | 295 | 0.0 | 8.0 | 0.00 | 0.00 | 0.00 | 36 | 1007.6 |
| 20260831220029 | 27 | 79 | 0.0 | 6.4 | 0.00 | 0.00 | 0.00 | 41 | 1007.7 |
| 20260831214524 | 27 | 290 | 0.0 | 3.2 | 0.00 | 0.00 | 0.00 | 42 | 1007.9 |
| 20260831213023 | 26 | 331 | 0.0 | 4.8 | 0.00 | 0.00 | 0.00 | 43 | 1008.1 |
| 20260831211516 | 25 | 282 | 1.6 | 6.4 | 0.00 | 0.00 | 0.00 | 44 | 1008.2 |
| 20260831210011 | 25 | 186 | 1.6 | 6.4 | 0.00 | 0.00 | 0.00 | 46 | 1008.3 |
| 20260831204508 | 24 | 32 | 1.6 | 4.8 | 0.00 | 0.00 | 0.00 | 47 | 1008.5 |
| 20260831203003 | 23 | 51 | 1.6 | 4.8 | 0.00 | 0.00 | 0.00 | 48 | 1008.7 |
| 20260831201602 | 23 | 279 | 0.0 | 6.4 | 0.00 | 0.00 | 0.00 | 49 | 1009.0 |
| 20260831200054 | 23 | 345 | 0.0 | 6.4 | 0.00 | 0.00 | 0.00 | 50 | 1009.1 |
| 20260831194555 | 22 | 337 | 1.6 | 6.4 | 0.00 | 0.00 | 0.00 | 50 | 1009.4 |
| 20260831193046 | 21 | 98 | 0.0 | 4.8 | 0.00 | 0.00 | 0.00 | 53 | 1009.6 |
| 20260831191550 | 21 | 35 | 0.0 | 4.8 | 0.00 | 0.00 | 0.00 | 54 | 1009.8 |
| 20260831190036 | 20 | 229 | 3.2 | 6.4 | 0.00 | 0.00 | 0.00 | 54 | 1010.0 |
| 20260831184532 | 20 | 113 | 0.0 | 6.4 | 0.00 | 0.00 | 0.00 | 56 | 1010.1 |
| 20260831183028 | 19 | 344 | 0.0 | 4.8 | 0.00 | 0.00 | 0.00 | 56 | 1010.3 |
| 20260831181523 | 18 | 283 | 0.0 | 4.8 | 0.00 | 0.00 | 0.00 | 56 | 1010.3 |
| 20260831180018 | 18 | 34 | 1.6 | 4.8 | 0.00 | 0.00 | 0.00 | 55 | 1010.4 |
| 20260831174515 | 18 | 85 | 0.0 | 3.2 | 0.00 | 0.00 | 0.00 | 55 | 1010.5 |
| 20260831173014 | 17 | 44 | 0.0 | 4.8 | 0.00 | 0.00 | 0.00 | 55 | 1010.7 |
| 20260831171511 | 16 | 13 | 0.0 | 4.8 | 0.00 | 0.00 | 0.00 | 53 | 1010.9 |
| 20260831170001 | 16 | 46 | 0.0 | 4.8 | 0.00 | 0.00 | 0.00 | 50 | 1010.9 |
| 20260831164608 | 15 | 27 | 3.2 | 6.4 | 0.00 | 0.00 | 0.00 | 46 | 1011.1 |
| 20260831163056 | 14 | 30 | 0.0 | 6.4 | 0.00 | 0.00 | 0.00 | 37 | 1011.3 |
| 20260831161547 | 14 | 30 | 1.6 | 4.8 | 0.00 | 0.00 | 0.00 | 29 | 1011.4 |
| 20260831160047 | 13 | 30 | 0.0 | 4.8 | 0.00 | 0.00 | 0.00 | 13 | 1011.4 |
| 20260831154539 | 12 | 27 | 0.0 | 4.8 | 0.00 | 0.00 | 0.00 | 100 | 1011.4 |
| 20260831153042 | 12 | 11 | 0.0 | 3.2 | 0.00 | 0.00 | 0.00 | 100 | 1011.4 |
| 20260831151530 | 11 | 11 | 0.0 | 4.8 | 0.00 | 0.00 | 0.00 | 100 | 1011.6 |
| 20260831150033 | 10 | 18 | 0.0 | 1.6 | 0.00 | 0.00 | 0.00 | 100 | 1011.4 |
| 20260831144521 | 10 | 18 | 0.0 | 0.0 | 0.00 | 0.00 | 0.00 | 100 | 1011.6 |
| 20260831143017 | 9 | 18 | 0.0 | 0.0 | 0.00 | 0.00 | 0.00 | 100 | 1011.5 |
| 20260831141512 | 9 | 18 | 0.0 | 0.0 | 0.00 | 0.00 | 0.00 | 100 | 1011.4 |
| 20260831140012 | 9 | 18 | 0.0 | 1.6 | 0.00 | 0.00 | 0.00 | 100 | 1011.5 |
| 20260831134504 | 9 | 18 | 0.0 | 0.0 | 0.00 | 0.00 | 0.00 | 100 | 1011.5 |
| 20260831133100 | 9 | 18 | 0.0 | 0.0 | 0.00 | 0.00 | 0.00 | 100 | 1011.5 |
| 20260831131555 | 10 | 18 | 0.0 | 0.0 | 0.00 | 0.00 | 0.00 | 100 | 1011.6 |
| 20260831130051 | 10 | 18 | 0.0 | 1.6 | 0.00 | 0.00 | 0.00 | 5 | 1011.7 |
| 20260831124558 | 10 | 18 | 0.0 | 0.0 | 0.00 | 0.00 | 0.00 | 7 | 1011.8 |
| 20260831123144 | 10 | 18 | 0.0 | 0.0 | 0.00 | 0.00 | 0.00 | 7 | 1011.8 |
| 20260831121537 | 11 | 18 | 0.0 | 0.0 | 0.00 | 0.00 | 0.00 | 7 | 1011.9 |
| 20260831120041 | 11 | 18 | 0.0 | 0.0 | 0.00 | 0.00 | 0.00 | 8 | 1011.9 |
| 20260831114538 | 11 | 18 | 0.0 | 0.0 | 0.00 | 0.00 | 0.00 | 10 | 1012.0 |